Tiempo cada hora Abrykosivka

Hoy, 26 Octubre, Lunes

Tiempo Temperatura Precipitaciones Viento Presión Humedad
00:00 +16°C° 0 mm 3 mps 749 mmHg 72%
01:00 +16°C° 0 mm 3 mps 749 mmHg 71%
02:00 +16°C° 0 mm 3 mps 749 mmHg 71%
03:00 +16°C° 0 mm 3 mps 749 mmHg 72%
04:00 +16°C° 0 mm 3 mps 748 mmHg 73%
05:00 +15°C° 0 mm 4 mps 748 mmHg 74%
06:00 +15°C° 0 mm 4 mps 748 mmHg 72%
07:00 +17°C° 0 mm 4 mps 748 mmHg 71%
08:00 +17°C° 0 mm 5 mps 748 mmHg 69%
09:00 +19°C° 0 mm 5 mps 748 mmHg 64%
10:00 +20°C° 0 mm 5 mps 748 mmHg 59%
11:00 +21°C° 0 mm 5 mps 748 mmHg 53%
12:00 +22°C° 0 mm 5 mps 748 mmHg 53%
13:00 +22°C° 0 mm 5 mps 748 mmHg 53%
14:00 +22°C° 0 mm 5 mps 748 mmHg 52%
15:00 +21°C° 0 mm 4 mps 748 mmHg 59%
16:00 +20°C° 0 mm 4 mps 748 mmHg 65%
17:00 +18°C° 0 mm 3 mps 748 mmHg 71%
18:00 +18°C° 0 mm 3 mps 748 mmHg 71%
19:00 +18°C° 0 mm 3 mps 748 mmHg 71%
20:00 +18°C° 0 mm 3 mps 748 mmHg 71%
21:00 +18°C° 0 mm 3 mps 748 mmHg 72%
22:00 +17°C° 0 mm 3 mps 748 mmHg 72%
23:00 +17°C° 0 mm 3 mps 748 mmHg 73%

Mañana, 27 Octubre, Martes

Tiempo Temperatura Precipitaciones Viento Presión Humedad
00:00 +17°C° 0 mm 3 mps 748 mmHg 72%
01:00 +17°C° 0 mm 3 mps 748 mmHg 72%
02:00 +17°C° 0 mm 3 mps 748 mmHg 71%
03:00 +17°C° 0 mm 3 mps 748 mmHg 71%
04:00 +17°C° 0 mm 3 mps 748 mmHg 71%
05:00 +17°C° 0 mm 3 mps 748 mmHg 71%
06:00 +17°C° 0 mm 3 mps 749 mmHg 69%
07:00 +17°C° 0 mm 3 mps 749 mmHg 67%
08:00 +18°C° 0 mm 3 mps 749 mmHg 65%
09:00 +19°C° 0 mm 3 mps 749 mmHg 60%
10:00 +20°C° 0 mm 3 mps 749 mmHg 55%
11:00 +21°C° 0 mm 3 mps 750 mmHg 51%
12:00 +21°C° 0 mm 3 mps 750 mmHg 53%
13:00 +20°C° 0 mm 4 mps 749 mmHg 55%
14:00 +20°C° 0 mm 5 mps 749 mmHg 58%
15:00 +19°C° 0 mm 5 mps 749 mmHg 62%
16:00 +17°C° 0 mm 5 mps 749 mmHg 66%
17:00 +16°C° 0 mm 5 mps 749 mmHg 70%
18:00 +15°C° 0 mm 4 mps 749 mmHg 72%
19:00 +15°C° 0 mm 4 mps 749 mmHg 73%
20:00 +14°C° 0 mm 3 mps 749 mmHg 75%
21:00 +14°C° 0 mm 3 mps 749 mmHg 76%
22:00 +14°C° 0 mm 3 mps 749 mmHg 77%
23:00 +13°C° 0 mm 3 mps 749 mmHg 78%

Pasado mañana, 28 Octubre, Miércoles

Tiempo Temperatura Precipitaciones Viento Presión Humedad
00:00 +13°C° 0 mm 3 mps 749 mmHg 80%
01:00 +13°C° 0 mm 3 mps 749 mmHg 82%
02:00 +12°C° 0 mm 3 mps 748 mmHg 84%
03:00 +12°C° 0 mm 3 mps 748 mmHg 85%
04:00 +12°C° 0 mm 3 mps 748 mmHg 87%
05:00 +11°C° 0 mm 3 mps 748 mmHg 88%
06:00 +12°C° 0 mm 3 mps 748 mmHg 84%
07:00 +13°C° 0 mm 3 mps 748 mmHg 80%
08:00 +13°C° 0 mm 4 mps 749 mmHg 76%
09:00 +16°C° 0 mm 3 mps 749 mmHg 69%
10:00 +18°C° 0 mm 3 mps 749 mmHg 61%
11:00 +19°C° 0 mm 3 mps 749 mmHg 54%
12:00 +20°C° 0 mm 4 mps 749 mmHg 54%
13:00 +20°C° 0 mm 4 mps 748 mmHg 54%
14:00 +20°C° 0 mm 4 mps 748 mmHg 54%
15:00 +19°C° 0 mm 3 mps 748 mmHg 60%
16:00 +18°C° 0 mm 3 mps 748 mmHg 67%
17:00 +17°C° 0 mm 3 mps 748 mmHg 74%
18:00 +17°C° 0 mm 3 mps 748 mmHg 74%
19:00 +16°C° 0 mm 3 mps 748 mmHg 75%
20:00 +16°C° 0 mm 3 mps 748 mmHg 76%
21:00 +16°C° 0 mm 3 mps 748 mmHg 75%
22:00 +14°C° 0 mm 3 mps 748 mmHg 74%
23:00 +15°C° 0 mm 2 mps 748 mmHg 74%

29 Octubre, Jueves

Tiempo Temperatura Precipitaciones Viento Presión Humedad
00:00 +15°C° 0 mm 2 mps 748 mmHg 74%
01:00 +15°C° 0 mm 2 mps 748 mmHg 74%
02:00 +14°C° 0 mm 2 mps 747 mmHg 75%
03:00 +14°C° 0 mm 2 mps 747 mmHg 76%
04:00 +14°C° 0 mm 2 mps 748 mmHg 77%
05:00 +14°C° 0 mm 2 mps 748 mmHg 78%
06:00 +13°C° 0 mm 3 mps 748 mmHg 77%
07:00 +14°C° 0 mm 3 mps 748 mmHg 76%
08:00 +14°C° 0 mm 3 mps 748 mmHg 75%
09:00 +17°C° 0 mm 3 mps 748 mmHg 69%
10:00 +18°C° 0 mm 3 mps 748 mmHg 63%
11:00 +19°C° 0 mm 3 mps 748 mmHg 57%
12:00 +19°C° 0 mm 3 mps 748 mmHg 58%
13:00 +19°C° 0 mm 3 mps 748 mmHg 60%
14:00 +19°C° 0 mm 3 mps 748 mmHg 61%
15:00 +18°C° 0 mm 3 mps 748 mmHg 68%
16:00 +17°C° 0 mm 3 mps 748 mmHg 75%
17:00 +14°C° 0 mm 3 mps 748 mmHg 82%
18:00 +15°C° 0 mm 2 mps 748 mmHg 83%
19:00 +15°C° 0 mm 2 mps 748 mmHg 83%
20:00 +15°C° 0 mm 1 mps 748 mmHg 84%
21:00 +15°C° 0 mm 2 mps 748 mmHg 83%
22:00 +15°C° 0 mm 2 mps 748 mmHg 83%
23:00 +15°C° 0 mm 2 mps 748 mmHg 82%

30 Octubre, Viernes

Tiempo Temperatura Precipitaciones Viento Presión Humedad
00:00 +15°C° 0 mm 2 mps 748 mmHg 83%
01:00 +15°C° 0 mm 2 mps 748 mmHg 83%
02:00 +14°C° 0 mm 3 mps 748 mmHg 83%
03:00 +14°C° 0 mm 3 mps 749 mmHg 85%
04:00 +14°C° 0 mm 2 mps 749 mmHg 86%
05:00 +14°C° 0 mm 2 mps 749 mmHg 87%
06:00 +13°C° 0.2 mm 3 mps 749 mmHg 85%
07:00 +14°C° 0.2 mm 3 mps 750 mmHg 82%
08:00 +14°C° 0.2 mm 3 mps 750 mmHg 80%
09:00 +14°C° 0.2 mm 3 mps 750 mmHg 76%
10:00 +16°C° 0.2 mm 3 mps 750 mmHg 72%
11:00 +16°C° 0.2 mm 3 mps 750 mmHg 68%
12:00 +16°C° 0.1 mm 3 mps 751 mmHg 68%
13:00 +16°C° 0.1 mm 3 mps 751 mmHg 68%
14:00 +16°C° 0.1 mm 3 mps 751 mmHg 68%
15:00 +14°C° 0 mm 3 mps 751 mmHg 69%
16:00 +14°C° 0 mm 3 mps 751 mmHg 71%
17:00 +13°C° 0 mm 3 mps 751 mmHg 72%
18:00 +13°C° 0 mm 3 mps 751 mmHg 72%
19:00 +13°C° 0 mm 3 mps 752 mmHg 73%
20:00 +13°C° 0 mm 3 mps 752 mmHg 74%
21:00 +12°C° 0 mm 3 mps 752 mmHg 75%
22:00 +12°C° 0 mm 3 mps 752 mmHg 76%
23:00 +12°C° 0 mm 3 mps 752 mmHg 77%

31 Octubre, Sábado

Tiempo Temperatura Precipitaciones Viento Presión Humedad
00:00 +12°C° 0 mm 3 mps 752 mmHg 78%
01:00 +12°C° 0 mm 3 mps 752 mmHg 78%
02:00 +12°C° 0 mm 3 mps 752 mmHg 79%
03:00 +11°C° 0 mm 4 mps 753 mmHg 80%
04:00 +11°C° 0 mm 4 mps 753 mmHg 82%
05:00 +11°C° 0 mm 4 mps 753 mmHg 84%
06:00 +11°C° 0 mm 4 mps 753 mmHg 80%
07:00 +11°C° 0 mm 4 mps 753 mmHg 76%
08:00 +11°C° 0 mm 4 mps 753 mmHg 72%
Mostrar más

Necesitamos Su Consentimiento

Meteoprog y nuestros Proveedores de Servicios pueden almacenar y acceder a sus datos personales como cookies, identificadores de dispositivo u otras tecnologías similares de su dispositivo y procesar dichos datos para personalizar contenido y anuncios, además de ofrecer funciones de redes sociales y analizar el tráfico.

  • Almacenar y/o acceder a información en su dispositivo

    Se puede almacenar o acceder a cookies, identificadores de dispositivo u otra información de su dispositivo para los fines anteriormente indicados.

  • Anuncios y contenido personalizados, medición de anuncios y contenido, percepciones del público, y desarrollo de productos

    Los anuncios y el contenido pueden personalizarse en base a su perfil. Se pueden añadir más datos para personalizar mejor los anuncios y contenidos. Se puede medir el rendimiento de los anuncios y contenidos. Se puede obtener la percepción sobre el público que ha visto los anuncios y contenidos. Dichos datos pueden usarse para desarrollar o mejorar la experiencia del usuario, sistemas y software.

Al hacer clic en ‘Estoy De Acuerdo’ usted permitirá el uso de las cookies, identificadores de dispositivo, balizas web u otras tecnologías similares indicadas. Su configuración puede cambiarse desde el navegador de su dispositivo.

Para ciertos fines, los intereses legítimos pueden ser considerados por encima del consentimiento. Puede leer más sobre ello en nuestra Política de Privacidad y Cookies.